ZDPS 2B (40902 NORAD) Tracking and Keplerian Element Data

This shows tracking and keplerian element data for the satellite.

Feedback or suggestion? Click here.




ElementValue
Catalog40902
NameZDPS 2B
Epoch Orbit19769
Epoch Day106.920331
Epoch Year2019
RAAN111.2424
Inclination97.4553
Eccentricity0.001544
Argument of Perigee62.3089
Mean Anonmoly359.0861
Mean Motion15.17390206
Decay Rate1.556E-05
L11 40902U 15049D 19106.92033100 .00001556 00000-0 81045-4 0 9998
L22 40902 97.4553 111.2424 0015440 62.3089 359.0861 15.17390206197695

Live tracking and technical data element details for ZDPS 2B (NORAD 40902). ZDPS 2B can be tracked NOW for your location showing map with azimuth and elevation plus other details from your city location.

Track the satellite on the map from your city or location and see movement details for azimuth, elevation, latitude, longitude, range, height, and movement on the map or in text.







IsCatalogInMostPopularTable: catalog: 40902, numindb: 192
Update: records affected: 1



GetName: 40902 ZDPS 2B

Hit Count: updated at: Sat, 20 Apr 2019 00:51:16 GMT